NSS-9

Last updated on Wed Sep 17 2025 00:02:47 GMT+0000 (Coordinated Universal Time)

1 33749U 09008A 25259.54863185 .00000052 00000+0 00000+0 0 9991 2 33749 0.5496 84.7785 0002102 83.8209 207.7198 1.00270366 60775
UTC large
Height (km)
Speed (km/s)
/
Latitude / Longitude
Inclination (degrees)
Orbital Period (minutes)
Azimuth
Elevation
Range (km)
Doppler Factor

Next 0 passes for location: London (51.5072 / 0.1276)

Sorry there are no passes over London.